Weather History for KTVR - December, 2012

Change the Weather History Date:

Monday, December 31, 2012

  Actual Average Record
Temperature  
Mean Temperature 47 °F 46 °F  
Max Temperature 60 °F 56 °F 79 °F (1951)
Min Temperature 33 °F 35 °F 10 °F (1983)
Degree Days  
Heating Degree Days 18 19  
Month to date heating degree days 379 534  
Since 1 July heating degree days 937 937  
Cooling Degree Days 0 0  
Month to date cooling degree days 10 6  
Year to date cooling degree days 2407 2231  
Moisture  
Dew Point 40 °F    
Average Humidity 73    
Maximum Humidity 89    
Minimum Humidity 56    
Precipitation  
Precipitation T in 0.14 in 2.09 in (2010)
Month to date precipitation 8.40 5.61  
Year to date precipitation 54.76 54.74  
Sea Level Pressure  
Sea Level Pressure 30.21 in    
Wind  
Wind Speed 8 mph (SSE)    
Max Wind Speed 17 mph    
Max Gust Speed 23 mph    
Visibility 10 miles    
Events      
T = Trace of Precipitation, MM = Missing Value Source: NWS Daily Summary

Daily Weather History Graph

Daily Weather History Graph

Search for Another Location

Airport or City:

Trip Planner

Search our weather history database for the weather conditions in past years. The results will help you decide how hot, cold, wet, or windy it might be!

Date:

Astronomy

Dec. 31, 2012 Rise Set
Actual Time 7:05 AM CST 5:09 PM CST
Civil Twilight 6:38 AM CST 5:36 PM CST
Nautical Twilight 6:07 AM CST 6:07 PM CST
Astronomical Twilight 5:37 AM CST 6:37 PM CST
Moon 8:27 PM CST (12/31) 8:58 AM CST (12/31)
Length of Visible Light 10h 58m
Length of Day
10h 04m
Waning Gibbous, 90% of the Moon is Illuminated
Dec 31
Waning Gibbous
Jan 4
Last Quarter
Jan 11
New
Jan 18
First Quarter
Jan 26
Full

Hourly Weather History & Observations

Time (CST) Temp. Windchill Dew Point Humidity Pressure Visibility Wind Dir Wind Speed Gust Speed Precip Events Conditions
12:53 AM 34.0 °F - 30.0 °F 85% 30.36 in 10.0 mi Calm Calm - N/A   Clear
1:53 AM 37.0 °F 33.3 °F 30.9 °F 79% 30.35 in 10.0 mi SE 4.6 mph - N/A   Clear
2:53 AM 37.0 °F 31.6 °F 28.9 °F 73% 30.35 in 10.0 mi SE 6.9 mph - N/A   Clear
3:53 AM 37.0 °F 32.4 °F 28.9 °F 73% 30.32 in 10.0 mi SE 5.8 mph - N/A   Clear
4:53 AM 37.9 °F 32.1 °F 30.0 °F 73% 30.32 in 10.0 mi SE 8.1 mph - N/A   Scattered Clouds
5:53 AM 41.0 °F 36.4 °F 30.0 °F 65% 30.32 in 10.0 mi SE 6.9 mph - N/A   Overcast
6:53 AM 41.0 °F - 30.0 °F 65% 30.33 in 10.0 mi Calm Calm - N/A   Overcast
7:04 AM 41.0 °F 39.0 °F 30.2 °F 65% 30.30 in 10.0 mi ESE 3.5 mph - N/A   Overcast
7:53 AM 43.0 °F 38.8 °F 30.0 °F 60% 30.32 in 10.0 mi SE 6.9 mph - N/A   Overcast
8:33 AM 42.8 °F 39.3 °F 33.8 °F 70% 30.28 in 10.0 mi ESE 5.8 mph - N/A   Overcast
8:53 AM 44.1 °F 40.1 °F 32.0 °F 63% 30.30 in 10.0 mi SE 6.9 mph - N/A   Overcast
9:53 AM 46.9 °F - 34.0 °F 61% 30.31 in 10.0 mi SE 5.8 mph - N/A   Overcast
10:53 AM 50.0 °F - 36.0 °F 59% 30.27 in 10.0 mi SE 10.4 mph - N/A   Overcast
11:53 AM 54.0 °F - 39.9 °F 59% 30.22 in 10.0 mi SSE 6.9 mph - N/A   Overcast
12:53 PM 57.0 °F - 43.0 °F 59% 30.17 in 10.0 mi South 9.2 mph - N/A   Overcast
1:53 PM 57.0 °F - 44.1 °F 62% 30.15 in 10.0 mi SSE 8.1 mph - N/A   Overcast
2:53 PM 59.0 °F - 46.0 °F 62% 30.12 in 10.0 mi SSE 9.2 mph - N/A   Overcast
3:53 PM 60.1 °F - 46.9 °F 62% 30.10 in 10.0 mi SSE 9.2 mph - N/A   Mostly Cloudy
4:53 PM 60.1 °F - 50.0 °F 69% 30.11 in 10.0 mi SSE 8.1 mph - N/A   Overcast
5:53 PM 59.0 °F - 51.1 °F 75% 30.10 in 10.0 mi SSE 10.4 mph - N/A   Overcast
6:53 PM 59.0 °F - 52.0 °F 78% 30.08 in 10.0 mi SSE 9.2 mph - 0.00 in   Overcast
8:53 PM 59.0 °F - 52.0 °F 78% 30.04 in 10.0 mi SSE 12.7 mph - N/A   Overcast
9:53 PM 59.0 °F - 52.0 °F 78% 30.03 in 10.0 mi SSE 11.5 mph 23.0 mph N/A   Overcast
10:53 PM 60.1 °F - 53.1 °F 78% 30.02 in 10.0 mi South 12.7 mph - N/A   Overcast
11:53 PM 60.1 °F - 54.0 °F 80% 30.00 in 10.0 mi South 10.4 mph - N/A   Overcast